カタログに戻る

COSMOS 2251 DEB

運用中LEO
NORAD 34998·DEBRIS·🇷🇺 Russia

打ち上げ Jun 16, 1993 から Plesetsk Cosmodrome

Loading…

次のパス (今後24時間)

TLE

最新Source: Space-Track

元期: Sep 13, 2026, 06:46 UTC

1 34998U 93036AFW 26256.28257810  .00001110  00000-0  29155-3 0  9996
2 34998  74.0120   3.7587 0019550  81.7811 307.6895 14.50238394913993

AllMySatでCOSMOS 2251 DEBをリアルタイム追跡

Download on the App Store